Time,TemperatureF,DewpointF,PressureIn,WindDirection,WindDirectionDegrees,WindSpeedMPH,WindSpeedGustMPH,Humidity,HourlyPrecipIn,Conditions,Clouds,dailyrainin,SoftwareType,DateUTC
2013-01-02 00:03:00,13.0,2.0,-100.00,WNW,295,1.0,3.0,60,0.00,,,-99.99,,2013-01-02 05:03:00,
2013-01-02 00:12:00,13.0,2.0,-100.00,WNW,300,1.0,3.0,60,0.00,,,-99.99,,2013-01-02 05:12:00,
2013-01-02 00:22:00,13.0,2.0,-100.00,WNW,285,1.0,4.0,60,0.00,,,-99.99,,2013-01-02 05:22:00,
2013-01-02 00:33:00,13.0,1.0,-100.00,NW,310,1.0,4.0,59,0.00,,,-99.99,,2013-01-02 05:33:00,
2013-01-02 00:42:00,13.0,1.0,-100.00,NW,310,1.0,4.0,59,0.00,,,-99.99,,2013-01-02 05:42:00,
2013-01-02 00:52:00,13.0,1.0,-100.00,WNW,295,2.0,6.0,59,0.00,,,-99.99,,2013-01-02 05:52:00,
2013-01-02 01:02:00,13.0,1.0,-100.00,North,0,1.0,6.0,60,0.00,,,-99.99,,2013-01-02 06:02:00,
2013-01-02 01:12:00,12.0,1.0,-100.00,WNW,300,2.0,4.0,61,0.00,,,-99.99,,2013-01-02 06:12:00,
2013-01-02 01:22:00,13.0,1.0,-100.00,WNW,290,2.0,6.0,60,0.00,,,-99.99,,2013-01-02 06:22:00,
2013-01-02 01:32:00,12.0,2.0,-100.00,WNW,290,1.0,6.0,61,0.00,,,-99.99,,2013-01-02 06:32:00,
2013-01-02 01:42:00,12.0,1.0,-100.00,West,270,1.0,6.0,60,0.00,,,-99.99,,2013-01-02 06:42:00,
2013-01-02 01:52:00,12.0,2.0,-100.00,West,260,1.0,4.0,63,0.00,,,-99.99,,2013-01-02 06:52:00,
2013-01-02 02:02:00,11.0,1.0,-100.00,NNW,340,1.0,4.0,64,0.00,,,-99.99,,2013-01-02 07:02:00,
2013-01-02 02:12:00,11.0,2.0,-100.00,NW,315,1.0,2.0,66,0.00,,,-99.99,,2013-01-02 07:12:00,
2013-01-02 02:22:00,11.0,1.0,-100.00,NW,315,0.0,2.0,65,0.00,,,-99.99,,2013-01-02 07:22:00,
2013-01-02 02:42:00,11.0,1.0,-100.00,NW,315,1.0,2.0,65,0.00,,,-99.99,,2013-01-02 07:42:00,
2013-01-02 02:52:00,10.0,2.0,-100.00,ENE,70,1.0,1.0,68,0.00,,,-99.99,,2013-01-02 07:52:00,
2013-01-02 03:02:00,9.0,2.0,-100.00,ESE,110,0.0,1.0,69,0.00,,,-99.99,,2013-01-02 08:02:00,
2013-01-02 03:12:00,9.0,2.0,-100.00,ENE,70,0.0,2.0,71,0.00,,,-99.99,,2013-01-02 08:12:00,
2013-01-02 03:22:00,9.0,2.0,-100.00,NE,45,1.0,1.0,70,0.00,,,-99.99,,2013-01-02 08:22:00,
2013-01-02 03:32:00,9.0,2.0,-100.00,ENE,60,1.0,1.0,71,0.00,,,-99.99,,2013-01-02 08:32:00,
2013-01-02 03:42:00,9.0,1.0,-100.00,NNE,25,1.0,2.0,71,0.00,,,-99.99,,2013-01-02 08:42:00,
2013-01-02 03:52:00,8.0,2.0,-100.00,NNE,20,1.0,1.0,73,0.00,,,-99.99,,2013-01-02 08:52:00,
2013-01-02 04:02:00,9.0,2.0,-100.00,ENE,60,1.0,1.0,73,0.00,,,-99.99,,2013-01-02 09:02:00,
2013-01-02 04:12:00,8.0,2.0,-100.00,North,-999,-999.0,-999.0,73,0.00,,,-99.99,,2013-01-02 09:12:00,
2013-01-02 04:22:00,8.0,1.0,-100.00,NNE,30,1.0,1.0,74,0.00,,,-99.99,,2013-01-02 09:22:00,
2013-01-02 04:43:00,8.0,2.0,-100.00,NE,45,1.0,1.0,75,0.00,,,-99.99,,2013-01-02 09:43:00,
2013-01-02 04:52:00,8.0,2.0,-100.00,NNE,15,1.0,2.0,75,0.00,,,-99.99,,2013-01-02 09:52:00,
2013-01-02 05:02:00,7.0,1.0,-100.00,NNE,30,1.0,2.0,76,0.00,,,-99.99,,2013-01-02 10:02:00,
2013-01-02 05:12:00,7.0,1.0,-100.00,NE,45,1.0,2.0,76,0.00,,,-99.99,,2013-01-02 10:12:00,
2013-01-02 05:22:00,7.0,1.0,-100.00,NE,45,1.0,2.0,76,0.00,,,-99.99,,2013-01-02 10:22:00,
2013-01-02 05:32:00,7.0,1.0,-100.00,NNE,20,1.0,1.0,76,0.00,,,-99.99,,2013-01-02 10:32:00,
2013-01-02 05:42:00,7.0,1.0,-100.00,North,5,1.0,1.0,77,0.00,,,-99.99,,2013-01-02 10:42:00,
2013-01-02 05:52:00,8.0,2.0,-100.00,NE,45,1.0,2.0,77,0.00,,,-99.99,,2013-01-02 10:52:00,
2013-01-02 06:02:00,8.0,2.0,-100.00,North,10,1.0,1.0,77,0.00,,,-99.99,,2013-01-02 11:02:00,
2013-01-02 06:12:00,9.0,3.0,-100.00,NE,45,1.0,2.0,77,0.00,,,-99.99,,2013-01-02 11:12:00,
2013-01-02 06:22:00,9.0,3.0,-100.00,NE,45,0.0,2.0,77,0.00,,,-99.99,,2013-01-02 11:22:00,
2013-01-02 06:33:00,9.0,3.0,-100.00,NE,50,1.0,2.0,77,0.00,,,-99.99,,2013-01-02 11:33:00,
2013-01-02 06:42:00,9.0,4.0,-100.00,NE,45,1.0,1.0,77,0.00,,,-99.99,,2013-01-02 11:42:00,
2013-01-02 06:52:00,10.0,4.0,-100.00,NNE,25,1.0,1.0,77,0.00,,,-99.99,,2013-01-02 11:52:00,
2013-01-02 07:03:00,10.0,4.0,-100.00,East,90,1.0,2.0,76,0.00,,,-99.99,,2013-01-02 12:03:00,
2013-01-02 07:12:00,11.0,5.0,-100.00,NE,50,1.0,1.0,76,0.00,,,-99.99,,2013-01-02 12:12:00,
2013-01-02 07:22:00,11.0,5.0,-100.00,ENE,75,1.0,2.0,76,0.00,,,-99.99,,2013-01-02 12:22:00,
2013-01-02 07:33:00,11.0,5.0,-100.00,ENE,70,1.0,1.0,76,0.00,,,-99.99,,2013-01-02 12:33:00,
2013-01-02 07:42:00,11.0,5.0,-100.00,East,90,1.0,4.0,76,0.00,,,-99.99,,2013-01-02 12:42:00,
2013-01-02 07:53:00,11.0,5.0,-100.00,East,85,1.0,4.0,75,0.00,,,-99.99,,2013-01-02 12:53:00,
2013-01-02 08:02:00,12.0,6.0,-100.00,ENE,75,1.0,4.0,75,0.00,,,-99.99,,2013-01-02 13:02:00,
2013-01-02 08:12:00,13.0,6.0,-100.00,ENE,75,1.0,2.0,75,0.00,,,-99.99,,2013-01-02 13:12:00,
2013-01-02 08:22:00,13.0,6.0,-100.00,East,100,1.0,3.0,73,0.00,,,-99.99,,2013-01-02 13:22:00,
2013-01-02 08:33:00,14.0,6.0,-100.00,East,100,1.0,2.0,69,0.00,,,-99.99,,2013-01-02 13:33:00,
2013-01-02 08:43:00,14.0,6.0,-100.00,ESE,105,2.0,4.0,67,0.00,,,-99.99,,2013-01-02 13:43:00,
2013-01-02 08:52:00,15.0,5.0,-100.00,East,95,1.0,2.0,66,0.00,,,-99.99,,2013-01-02 13:52:00,
2013-01-02 09:02:00,15.0,6.0,-100.00,ESE,105,1.0,2.0,65,0.00,,,-99.99,,2013-01-02 14:02:00,
2013-01-02 09:12:00,16.0,6.0,-100.00,East,100,1.0,4.0,64,0.00,,,-99.99,,2013-01-02 14:12:00,
2013-01-02 09:22:00,16.0,6.0,-100.00,East,100,1.0,2.0,63,0.00,,,-99.99,,2013-01-02 14:22:00,
2013-01-02 09:33:00,17.0,6.0,-100.00,ESE,115,1.0,2.0,62,0.00,,,-99.99,,2013-01-02 14:33:00,
2013-01-02 09:53:00,18.0,7.0,-100.00,East,90,1.0,2.0,60,0.00,,,-99.99,,2013-01-02 14:53:00,
2013-01-02 10:03:00,19.0,8.0,-100.00,East,80,0.0,2.0,60,0.00,,,-99.99,,2013-01-02 15:03:00,
2013-01-02 10:12:00,20.0,8.0,-100.00,West,260,0.0,4.0,59,0.00,,,-99.99,,2013-01-02 15:12:00,
2013-01-02 10:22:00,21.0,8.0,-100.00,SW,225,1.0,3.0,58,0.00,,,-99.99,,2013-01-02 15:22:00,
2013-01-02 10:33:00,23.0,10.0,-100.00,SW,225,1.0,9.0,58,0.00,,,-99.99,,2013-01-02 15:33:00,
2013-01-02 10:43:00,23.0,11.0,-100.00,WSW,245,4.0,14.0,59,0.00,,,-99.99,,2013-01-02 15:43:00,
2013-01-02 10:53:00,24.0,11.0,-100.00,South,180,2.0,12.0,57,0.00,,,-99.99,,2013-01-02 15:53:00,
2013-01-02 11:03:00,24.0,11.0,-100.00,North,-999,-999.0,-999.0,57,0.00,,,-99.99,,2013-01-02 16:03:00,
2013-01-02 11:13:00,24.0,11.0,-100.00,WNW,290,4.0,10.0,55,0.00,,,-99.99,,2013-01-02 16:13:00,
2013-01-02 11:22:00,25.0,11.0,-100.00,SSW,210,2.0,11.0,55,0.00,,,-99.99,,2013-01-02 16:22:00,
2013-01-02 11:33:00,25.0,11.0,-100.00,West,265,4.0,11.0,55,0.00,,,-99.99,,2013-01-02 16:33:00,
2013-01-02 11:43:00,25.0,11.0,-100.00,WSW,245,4.0,11.0,55,0.00,,,-99.99,,2013-01-02 16:43:00,
2013-01-02 11:53:00,25.0,11.0,-100.00,SW,225,4.0,12.0,56,0.00,,,-99.99,,2013-01-02 16:53:00,
2013-01-02 12:03:00,25.0,11.0,-100.00,West,280,4.0,11.0,56,0.00,,,-99.99,,2013-01-02 17:03:00,
2013-01-02 12:13:00,24.0,11.0,-100.00,SW,230,3.0,10.0,57,0.00,,,-99.99,,2013-01-02 17:13:00,
2013-01-02 12:23:00,24.0,11.0,-100.00,West,275,4.0,14.0,56,0.00,,,-99.99,,2013-01-02 17:23:00,
2013-01-02 12:33:00,23.0,9.0,-100.00,North,-999,-999.0,-999.0,54,0.00,,,-99.99,,2013-01-02 17:33:00,
2013-01-02 12:43:00,24.0,10.0,-100.00,West,270,3.0,12.0,54,0.00,,,-99.99,,2013-01-02 17:43:00,
2013-01-02 12:53:00,24.0,11.0,-100.00,WSW,250,4.0,13.0,56,0.00,,,-99.99,,2013-01-02 17:53:00,
2013-01-02 13:03:00,24.0,10.0,-100.00,North,355,2.0,12.0,55,0.00,,,-99.99,,2013-01-02 18:03:00,
2013-01-02 13:13:00,24.0,10.0,-100.00,NW,305,4.0,12.0,54,0.00,,,-99.99,,2013-01-02 18:13:00,
2013-01-02 13:22:00,23.0,9.0,-100.00,NNW,335,4.0,12.0,54,0.00,,,-99.99,,2013-01-02 18:22:00,
2013-01-02 13:33:00,24.0,10.0,-100.00,SSW,200,3.0,10.0,54,0.00,,,-99.99,,2013-01-02 18:33:00,
2013-01-02 13:43:00,25.0,10.0,-100.00,SSW,195,3.0,9.0,52,0.00,,,-99.99,,2013-01-02 18:43:00,
2013-01-02 13:53:00,26.0,10.0,-100.00,West,265,2.0,10.0,50,0.00,,,-99.99,,2013-01-02 18:53:00,
2013-01-02 14:03:00,26.0,9.0,-100.00,West,270,7.0,16.0,48,0.00,,,-99.99,,2013-01-02 19:03:00,
2013-01-02 14:12:00,24.0,8.0,-100.00,WNW,300,4.0,18.0,50,0.00,,,-99.99,,2013-01-02 19:12:00,
2013-01-02 14:23:00,24.0,8.0,-100.00,WSW,255,5.0,18.0,50,0.00,,,-99.99,,2013-01-02 19:23:00,
2013-01-02 14:33:00,23.0,7.0,-100.00,WSW,255,4.0,15.0,49,0.00,,,-99.99,,2013-01-02 19:33:00,
2013-01-02 14:43:00,23.0,6.0,-100.00,West,260,7.0,15.0,48,0.00,,,-99.99,,2013-01-02 19:43:00,
2013-01-02 14:52:00,23.0,6.0,-100.00,WNW,290,5.0,17.0,47,0.00,,,-99.99,,2013-01-02 19:52:00,
2013-01-02 15:03:00,23.0,6.0,-100.00,West,265,6.0,19.0,47,0.00,,,-99.99,,2013-01-02 20:03:00,
2013-01-02 15:12:00,23.0,5.0,-100.00,WNW,300,5.0,13.0,45,0.00,,,-99.99,,2013-01-02 20:12:00,
2013-01-02 15:23:00,23.0,5.0,-100.00,SW,215,2.0,12.0,46,0.00,,,-99.99,,2013-01-02 20:23:00,
2013-01-02 15:33:00,22.0,4.0,-100.00,WSW,240,4.0,16.0,45,0.00,,,-99.99,,2013-01-02 20:33:00,
2013-01-02 15:42:00,22.0,4.0,-100.00,West,275,5.0,15.0,44,0.00,,,-99.99,,2013-01-02 20:42:00,
2013-01-02 15:53:00,22.0,5.0,-100.00,WNW,290,1.0,12.0,45,0.00,,,-99.99,,2013-01-02 20:53:00,
2013-01-02 16:03:00,22.0,4.0,-100.00,West,270,6.0,14.0,44,0.00,,,-99.99,,2013-01-02 21:03:00,
2013-01-02 16:13:00,21.0,4.0,-100.00,WSW,245,2.0,9.0,45,0.00,,,-99.99,,2013-01-02 21:13:00,
2013-01-02 16:22:00,21.0,4.0,-100.00,SW,235,2.0,14.0,46,0.00,,,-99.99,,2013-01-02 21:22:00,
2013-01-02 16:33:00,21.0,3.0,-100.00,SW,235,3.0,13.0,45,0.00,,,-99.99,,2013-01-02 21:33:00,
2013-01-02 16:43:00,20.0,3.0,-100.00,West,265,2.0,13.0,46,0.00,,,-99.99,,2013-01-02 21:43:00,
2013-01-02 16:52:00,20.0,3.0,-100.00,WNW,290,3.0,9.0,47,0.00,,,-99.99,,2013-01-02 21:52:00,
2013-01-02 17:03:00,20.0,3.0,-100.00,West,265,3.0,12.0,47,0.00,,,-99.99,,2013-01-02 22:03:00,
2013-01-02 17:12:00,19.0,2.0,-100.00,West,280,6.0,12.0,47,0.00,,,-99.99,,2013-01-02 22:12:00,
2013-01-02 17:22:00,19.0,3.0,-100.00,West,265,3.0,13.0,48,0.00,,,-99.99,,2013-01-02 22:22:00,
2013-01-02 17:32:00,18.0,2.0,-100.00,West,265,3.0,7.0,49,0.00,,,-99.99,,2013-01-02 22:32:00,
2013-01-02 17:42:00,18.0,2.0,-100.00,West,270,3.0,8.0,48,0.00,,,-99.99,,2013-01-02 22:42:00,
2013-01-02 17:52:00,17.0,1.0,-100.00,WNW,285,4.0,10.0,49,0.00,,,-99.99,,2013-01-02 22:52:00,
2013-01-02 18:03:00,17.0,1.0,-100.00,West,270,6.0,12.0,48,0.00,,,-99.99,,2013-01-02 23:03:00,
2013-01-02 18:13:00,16.0,0.0,-100.00,West,265,4.0,15.0,47,0.00,,,-99.99,,2013-01-02 23:13:00,
2013-01-02 18:23:00,16.0,0.0,-100.00,West,260,4.0,15.0,48,0.00,,,-99.99,,2013-01-02 23:23:00,
2013-01-02 18:33:00,15.0,-1.0,-100.00,West,270,5.0,12.0,47,0.00,,,-99.99,,2013-01-02 23:33:00,
2013-01-02 18:42:00,15.0,-2.0,-100.00,West,275,4.0,11.0,46,0.00,,,-99.99,,2013-01-02 23:42:00,
2013-01-02 18:52:00,14.0,-3.0,-100.00,West,275,2.0,14.0,45,0.00,,,-99.99,,2013-01-02 23:52:00,
2013-01-02 19:02:00,14.0,-3.0,-100.00,West,275,2.0,14.0,46,0.00,,,-99.99,,2013-01-03 00:02:00,
2013-01-02 19:12:00,13.0,-3.0,-100.00,WNW,285,4.0,11.0,48,0.00,,,-99.99,,2013-01-03 00:12:00,
2013-01-02 19:22:00,13.0,-2.0,-100.00,WNW,290,2.0,9.0,50,0.00,,,-99.99,,2013-01-03 00:22:00,
2013-01-02 19:38:00,11.0,-2.0,-100.00,WNW,285,6.0,16.0,55,0.00,,,-99.99,,2013-01-03 00:38:00,
2013-01-02 19:52:00,10.0,-3.0,-100.00,North,-999,-999.0,-999.0,55,-99.99,,,-99.99,,2013-01-03 00:52:00,
2013-01-02 20:02:00,10.0,-3.0,-100.00,WNW,295,4.0,12.0,56,0.00,,,-99.99,,2013-01-03 01:02:00,
2013-01-02 20:12:00,9.0,-4.0,-100.00,West,280,4.0,12.0,55,0.00,,,-99.99,,2013-01-03 01:12:00,
2013-01-02 20:22:00,9.0,-4.0,-100.00,WNW,295,6.0,14.0,55,0.00,,,-99.99,,2013-01-03 01:22:00,
2013-01-02 20:32:00,8.0,-5.0,-100.00,WNW,290,3.0,7.0,53,0.00,,,-99.99,,2013-01-03 01:32:00,
2013-01-02 20:42:00,8.0,-6.0,-100.00,WNW,300,7.0,14.0,52,0.00,,,-99.99,,2013-01-03 01:42:00,
2013-01-02 21:02:00,7.0,-6.0,-100.00,NW,305,6.0,13.0,52,0.00,,,-99.99,,2013-01-03 02:02:00,
2013-01-02 21:12:00,7.0,-7.0,-100.00,NW,315,7.0,19.0,50,0.00,,,-99.99,,2013-01-03 02:12:00,
2013-01-02 21:22:00,7.0,-7.0,-100.00,WNW,295,5.0,12.0,51,0.00,,,-99.99,,2013-01-03 02:22:00,
2013-01-02 21:33:00,7.0,-8.0,-100.00,WSW,240,6.0,12.0,50,0.00,,,-99.99,,2013-01-03 02:33:00,
2013-01-02 21:42:00,7.0,-8.0,-100.00,WSW,240,6.0,12.0,50,0.00,,,-99.99,,2013-01-03 02:42:00,
2013-01-02 21:52:00,7.0,-8.0,-100.00,WSW,240,6.0,12.0,50,0.00,,,-99.99,,2013-01-03 02:52:00,
2013-01-02 22:02:00,6.0,-8.0,-100.00,WSW,255,3.0,9.0,52,0.00,,,-99.99,,2013-01-03 03:02:00,
2013-01-02 22:12:00,5.0,-7.0,-100.00,ENE,65,2.0,9.0,54,0.00,,,-99.99,,2013-01-03 03:12:00,
2013-01-02 22:22:00,5.0,-7.0,-100.00,West,260,1.0,9.0,55,0.00,,,-99.99,,2013-01-03 03:22:00,
2013-01-02 22:46:00,5.0,-8.0,-100.00,West,280,4.0,9.0,54,0.00,,,-99.99,,2013-01-03 03:46:00,
2013-01-02 22:52:00,4.0,-8.0,-100.00,NW,305,4.0,7.0,56,0.00,,,-99.99,,2013-01-03 03:52:00,
2013-01-02 23:02:00,4.0,-8.0,-100.00,WNW,295,6.0,11.0,56,0.00,,,-99.99,,2013-01-03 04:02:00,
2013-01-02 23:22:00,4.0,-8.0,-100.00,West,270,5.0,14.0,57,0.00,,,-99.99,,2013-01-03 04:22:00,
2013-01-02 23:32:00,4.0,-8.0,-100.00,WSW,240,4.0,11.0,57,0.00,,,-99.99,,2013-01-03 04:32:00,
2013-01-02 23:42:00,4.0,-8.0,-100.00,SW,215,4.0,11.0,57,0.00,,,-99.99,,2013-01-03 04:42:00,
2013-01-02 23:52:00,4.0,-8.0,-100.00,WNW,285,2.0,12.0,57,0.00,,,-99.99,,2013-01-03 04:52:00,